This is the latest recevied weather packets stored in our database for station/object KB4MLW-13. If no packets are shown the sender has not sent any weather packets the latest 10 day(s).
| Time | Temp. | Humidity | Pressure | Rain* | Wind** | Luminosity | Snow |
|---|---|---|---|---|---|---|---|
| 1788370258 | 34.44° C | 54% | 1001.7 hPa | 0 mm | - | - | - |
| 1788370168 | 35° C | 55% | 1001.7 hPa | 0 mm | - | - | - |
| 1788370108 | 35.56° C | 55% | 1001.6 hPa | 0 mm | - | - | - |
| 1788370048 | 35.56° C | 54% | 1001.6 hPa | 0 mm | - | - | - |
| 1788369959 | 35° C | 56% | 1001.7 hPa | 0 mm | - | - | - |
| 1788369898 | 35° C | 57% | 1001.7 hPa | 0 mm | - | - | - |
| 1788369838 | 35° C | 57% | 1001.9 hPa | 0 mm | - | - | - |
| 1788369749 | 35° C | 60% | 1001.7 hPa | 0 mm | - | - | - |
| 1788369688 | 35° C | 55% | 1001.8 hPa | 0 mm | - | - | - |
| 1788369628 | 35° C | 57% | 1001.9 hPa | 0 mm | - | - | - |
| 1788369540 | 35° C | 55% | 1002 hPa | 0 mm | - | - | - |
| 1788369478 | 35° C | 59% | 1001.9 hPa | 0 mm | - | - | - |
| 1788369418 | 35° C | 58% | 1001.9 hPa | 0 mm | - | - | - |
| 1788369358 | 34.44° C | 57% | 1002 hPa | 0 mm | - | - | - |
| 1788369270 | 33.89° C | 59% | 1001.8 hPa | 0 mm | - | - | - |
| 1788369209 | 33.89° C | 62% | 1002.1 hPa | 0 mm | - | - | - |
| 1788369149 | 33.89° C | 61% | 1002.1 hPa | 0 mm | - | - | - |
| 1788369089 | 33.89° C | 58% | 1002 hPa | 0 mm | - | - | - |
| 1788369029 | 34.44° C | 58% | 1002 hPa | 0 mm | - | - | - |
| 1788368969 | 34.44° C | 58% | 1001.9 hPa | 0 mm | - | - | - |
| 1788368879 | 34.44° C | 58% | 1002.1 hPa | 0 mm | - | - | - |
| 1788368789 | 34.44° C | 59% | 1001.9 hPa | 0 mm | - | - | - |
| 1788368698 | 34.44° C | 58% | 1002 hPa | 0 mm | - | - | - |
| 1788368638 | 34.44° C | 58% | 1002.2 hPa | 0 mm | - | - | - |
| 1788368578 | 34.44° C | 59% | 1002 hPa | 0 mm | - | - | - |
* Rain latest hour (hover to see other rain measurements)
** Current wind speed in m/s (hover to see current wind gust speed)